STARLINK-33750, 63513

Orbit data source: Space-Track

STARLINK-33750, 63513 is a payload satellite owned by SpaceX/Seattle (US) in LEO that was launched on Mon, 07 Apr 2025 UTC via an FALCON 9 launch vehicle from the Air Force Western Test Range (AFWTR). Payload-class satellites include a variety of spacecraft equipped with specific instruments for various scientific and technological missions. These include communications satellites like Starlink; space stations such as the ISS; scientific satellites like the Hubble; Earth observation satellites from companies like Planet Labs, Umbra, and HawkEye 360; GPS; miniature CubeSats for education and research; and military/defense satellites.

Loading next visibility...
Identifier
63513, 2025-071W
Orbit
LEO
Country
Flag of USUS
Related business
Manufacturer
SpaceX/Seattle
Mission
Operational Commercial Communications
Bus & Motor
STARLINK V2MO, Unknown motor
Mass
575 kg wet, ~530 kg dry
Launch date (UTC)
2025-04-07 (1 year ago)
Launch vehicle
FALCON 9
Launch site
Air Force Western Test Range (AFWTR)
Object type
Payload
Rocket body
Debris
Shape & HBR
Box + 2 Pan, 17.7 m
Radar Cross Section
36.964 m², Large (>1 m²)

Expand to show TLE details & history
Last TLE update: 9 hours ago

TLE from 9 hours ago
0 STARLINK-33750
1 63513U 25071W   26127.70031067  .00023722  00000-0  77306-3 0  9997
2 63513  53.1586 225.8611 0001159  88.2640 271.8494 15.31729042 61788
Epoch: 2026-05-07T16:48Z
TLE epoch observation values (Epoch: 2026-05-07T16:48:26.841Z)
Latitude
-0.00005°
Longitude
108.20654°
Altitude
471.528 km
Speed
7.632 km/s
True Right ascension
15h 03m 26s
True Declination
0° 00' 00"
Sunlit
Object was in full shadow at epoch
Visualization orbit readout
Latitude
Unknown
Longitude
Unknown
Altitude
Unknown
Speed
Unknown
Apparent Right ascension
Unknown
Apparent Declination
Unknown
Sunlit
N/A
Visualization observer readout
Local Sidereal Time
10:18:02
Azimuth
Unknown
Elevation
Unknown
Doppler factor
Unknown
Orbital elements
Apogee altitude
471.704 km
Perigee altitude
470.116 km
Semi-major axis
6,849.047 km
Eccentricity
0.00012
Inclination
53.1586°
RAAN
225.8611°
Arg. of periapsis
88.264°
True anomaly
271.83613°
Mean anomaly
271.8494°
Eccentric anomaly
271.84276°
Mean motion
3.82911 °/min
Orbital period
94.02 mins
BSTAR
0.00077306
Loading maneuver chart data...
Computing Atmospheric mass density...
Loading historical data...
Loading historical data...
Loading historical data...
Loading historical data...
Loading historical data...
Loading historical data...
Loading historical data...

Documentation

Showing up to 5 results
|